Regional Weather Roundup
Issued by NWS

Home | Current Version | Previous Version | Text Only | Print | Product List | Glossary On
Versions: 1 2 3 4 5 6 7 8 9 10 11 12 13 14 15 16 17 18 19 20 21 22 23 24 25 26 27 28 29 30 31 32 33 34 35 36 37 38 39 40 41 42 43 44 45 46 47 48 49 50
000
ASUS43 KLSX 301507
RWRMO
STLRWRMO ALL

WEATHER SUMMARY FOR MISSOURI
NATIONAL WEATHER SERVICE SPRINGFIELD MO
1000 AM CDT SUN APR 30 2017

NOTE: "FAIR" INDICATES FEW OR NO CLOUDS BELOW 12,000 FEET WITH NO
       SIGNIFICANT WEATHER AND/OR OBSTRUCTIONS TO VISIBILITY.
       CURRENT SKY AND/OR WEATHER CONDITIONS ARE NOT AVAILABLE FOR
       CHILLICOTHE AND FARMINGTON.

MOZ001>031-035>038-043-044-053-054-301600-
...NORTHERN AND WESTERN MISSOURI...

CITY           SKY/WX    TMP DP  RH WIND       PRES   REMARKS
KANSAS CTY INT CLOUDY    47  46  97 E20G26    29.51F FOG
KANSAS C DTWN  CLOUDY   N/A N/A N/A E17       29.51F HAZE
LEE`S SUMMIT   CLOUDY    49  49 100 E16G22    29.50S FOG
ST JOSEPH      CLOUDY    46  45  96 E17G31    29.54F
CHILLICOTHE      N/A     46  45  96 NE9G17    29.68S
KIRKSVILLE     CLOUDY    46  31  55 N14       29.71F HAZE

$$
MOZ066>068-077>081-088>096-101>105-301600-
...SOUTHWEST MISSOURI...

CITY           SKY/WX    TMP DP  RH WIND       PRES   REMARKS
SPRINGFIELD    CLOUDY    65  63  93 SE18      29.51F
JOPLIN         CLOUDY    56  53  90 S15G24    29.58R
BRANSON        CLOUDY    64  64 100 S10       29.59F

$$
MOZ032>034-039>042-045>050-055>058-069>072-301600-
...CENTRAL MISSOURI...

CITY           SKY/WX    TMP DP  RH WIND       PRES   REMARKS
COLUMBIA       CLOUDY    61  61 100 SE12G21   29.62F
JEFFERSON CITY CLOUDY    65  60  84 SE13      29.61S
ROLLA          RAIN      62  32  32 SE14G25   29.64R
SEDALIA        CLOUDY    64  64 100 SE16G24   29.57F
WHITEMAN AFB   CLOUDY    54  54 100 E8        29.52F
OSAGE BEACH    CLOUDY    64  62  93 SE12G18   29.61S

$$
MOZ051-052-059>065-301600-
...EAST CENTRAL MISSOURI...

CITY           SKY/WX    TMP DP  RH WIND       PRES   REMARKS
ST LOUIS INTL  RAIN      63  60  90 SE14      29.74R
SPIRIT OF STL  RAIN      63  61  93 SE15G21   29.72R FOG
ST CHARLES     RAIN      62  61  96 SE13      29.73R FOG

$$
MOZ072>076-082>087-097>100-106>115-301600-
...SOUTH CENTRAL AND SOUTHEAST MISSOURI...

CITY           SKY/WX    TMP DP  RH WIND       PRES   REMARKS
CAPE GIRARDEAU LGT RAIN  64  62  93 SE14      29.77F
FARMINGTON     RAIN      62  61  96 E12       29.75F
POPLAR BLUFF   CLOUDY    66  65  96 SE10      29.73F

$$




USA.gov is the U.S. government's official web portal to all federal, state and local government web resources and services.